Regional Weather Roundup
Issued by NWS

Home | Current Version | Previous Version | Text Only | Print | Product List | Glossary Off
Versions: 1 2 3 4 5 6 7 8 9 10 11 12 13 14 15 16 17 18 19 20 21 22 23 24 25 26 27 28 29 30 31 32 33 34 35 36 37 38 39 40 41 42 43 44 45 46 47 48 49 50

000
ASUS43 KLMK 260802
RWRKY
KENTUCKY REGIONAL WEATHER ROUNDUP
NATIONAL WEATHER SERVICE LOUISVILLE KY
400 AM EDT SAT JUL 26 2014

NOTE "FAIR" INDICATES FEW OR NO CLOUDS BELOW 12,000 FEET
WITH NO SIGNIFICANT WEATHER AND/OR OBSTRUCTIONS TO VISIBILITY.

KYZ001>023-026-027-061>063-070>075-260900-
WESTERN AND SOUTH CENTRAL KENTUCKY

CITY           SKY/WX    TMP DP  RH WIND       PRES   REMARKS
PADUCAH        CLEAR     69  64  84 S6        29.96F
HENDERSON      CLEAR     61  55  82 CALM      29.97F
OWENSBORO      CLEAR     62  61  97 CALM      29.99F
HOPKINSVILLE   CLEAR     65  65  99 E1        30.01S
BOWLING GREEN  CLEAR     66  61  84 CALM      30.01F
GLASGOW        CLEAR     64  60  88 CALM      30.01F
$$

KYZ024-025-028>034-038-045-046-053-260900-
NORTH CENTRAL KENTUCKY

CITY           SKY/WX    TMP DP  RH WIND       PRES   REMARKS
LOUISVILLE/SDF PTCLDY    70  61  73 S7        29.98F
LOUISVILLE/LOU CLEAR     69  61  75 S3        29.98F
FORT KNOX      CLEAR     62  61  96 S2        29.98F
$$

KYZ035>037-039>044-047>052-055>060-089>105-260900-
NORTHEAST KENTUCKY

CITY           SKY/WX    TMP DP  RH WIND       PRES   REMARKS
LEXINGTON        N/A     68  61  78 S6        30.01F
COVINGTON      CLOUDY    68  61  78 S5        29.99F
FRANKFORT      MOCLDY    67  60  78 S5        29.99F
$$

KYZ054-064>069-076>088-106>120-260900-
SOUTHEAST KENTUCKY

CITY           SKY/WX    TMP DP  RH WIND       PRES   REMARKS
JACKSON        PTCLDY    64  59  83 CALM      30.04S
LONDON         PTCLDY    64  60  87 CALM      30.05R
SOMERSET       MOCLDY    61  61 100 CALM      30.05S
MIDDLESBORO    CLOUDY    62  62 100 CALM      30.06S
MONTICELLO     MOSUNNY   63  62  96 CALM      30.05S FOG
$$




USA.gov is the U.S. government's official web portal to all federal, state and local government web resources and services.